APG1192 EDDN-EDDH

Flight info

Callsign APG1192
Flight time 0h 57m
Altitude 34000
Route SULUS1G/28 SULUS L604 MASEK/N0444F330 DCT ELNAT/N0446F340 P605 NOLGO NOLGO6A
Aircraft A20N/M-SDE2E3FGHIRWXY/LB1

Departure

Time 2026-04-20 14:48
Airport Nuremberg Airport (EDDN)

Arrival

Time 2026-04-20 15:45
Airport Hamburg Helmut Schmidt Airport (EDDH)
Time Latitude Longitude Altitude Speed Heading
2026-04-20 14:22 49.49478 11.08167 1029 ft 0 kts 188°
2026-04-20 14:37 49.49490 11.08170 1029 ft 2 kts 188°
2026-04-20 14:37 49.49505 11.08173 1029 ft 2 kts 188°
2026-04-20 14:37 49.49514 11.08176 1029 ft 2 kts 187°
2026-04-20 14:38 49.49529 11.08173 1029 ft 2 kts 155°
2026-04-20 14:38 49.49542 11.08160 1029 ft 2 kts 131°
2026-04-20 14:38 49.49549 11.08140 1029 ft 2 kts 106°
2026-04-20 14:38 49.49551 11.08130 1029 ft 1 kts 94°
2026-04-20 14:39 49.49551 11.08124 1029 ft 0 kts 97°
2026-04-20 14:39 49.49551 11.08125 1029 ft 0 kts 97°
2026-04-20 14:42 49.49551 11.08130 1029 ft 1 kts 98°
2026-04-20 14:42 49.49548 11.08154 1029 ft 3 kts 97°
2026-04-20 14:42 49.49544 11.08199 1029 ft 5 kts 98°
2026-04-20 14:42 49.49538 11.08261 1029 ft 6 kts 99°
2026-04-20 14:43 49.49546 11.08330 1030 ft 6 kts 51°
2026-04-20 14:43 49.49581 11.08353 1031 ft 5 kts 14°
2026-04-20 14:43 49.49607 11.08376 1032 ft 3 kts 45°
2026-04-20 14:43 49.49615 11.08403 1033 ft 2 kts 83°
2026-04-20 14:44 49.49615 11.08422 1033 ft 1 kts 91°
2026-04-20 14:44 49.49614 11.08440 1033 ft 2 kts 95°
2026-04-20 14:44 49.49612 11.08470 1034 ft 3 kts 97°
2026-04-20 14:44 49.49605 11.08542 1035 ft 10 kts 98°
2026-04-20 14:45 49.49591 11.08688 1038 ft 15 kts 98°
2026-04-20 14:45 49.49576 11.08849 1042 ft 15 kts 99°
2026-04-20 14:45 49.49559 11.09009 1045 ft 14 kts 98°
2026-04-20 14:45 49.49543 11.09174 1046 ft 15 kts 99°
2026-04-20 14:46 49.49530 11.09334 1049 ft 14 kts 83°
2026-04-20 14:46 49.49583 11.09467 1049 ft 15 kts 53°
2026-04-20 14:46 49.49661 11.09562 1050 ft 14 kts 358°
2026-04-20 14:46 49.49706 11.09487 1049 ft 0 kts 281°
2026-04-20 14:47 49.49706 11.09483 1049 ft 1 kts 277°
2026-04-20 14:47 49.49735 11.09189 1050 ft 67 kts 277°
2026-04-20 14:47 49.49841 11.08087 1031 ft 138 kts 279°
2026-04-20 14:48 49.50178 11.04680 2137 ft 167 kts 282°
2026-04-20 14:48 49.50364 11.02897 2785 ft 178 kts 282°
2026-04-20 14:48 49.50550 11.00938 3382 ft 194 kts 281°
2026-04-20 14:48 49.50744 10.98807 4003 ft 210 kts 281°
2026-04-20 14:49 49.50985 10.96514 4616 ft 227 kts 287°
2026-04-20 14:49 49.51718 10.94314 5188 ft 242 kts 312°
2026-04-20 14:49 49.53091 10.92781 5890 ft 255 kts 339°
2026-04-20 14:49 49.54849 10.92395 6758 ft 264 kts 359°
2026-04-20 14:50 49.56682 10.92467 7677 ft 268 kts 359°
2026-04-20 14:50 49.58543 10.92557 8659 ft 270 kts 359°
2026-04-20 14:50 49.60419 10.92627 9562 ft 273 kts 358°
2026-04-20 14:50 49.62294 10.92683 10457 ft 276 kts 358°
2026-04-20 14:51 49.64247 10.92730 10970 ft 292 kts 358°
2026-04-20 14:51 49.66346 10.92767 11423 ft 310 kts 358°
2026-04-20 14:51 49.68545 10.92746 12064 ft 319 kts 354°
2026-04-20 14:51 49.70728 10.92319 13001 ft 317 kts 347°
2026-04-20 14:52 49.72839 10.91443 13830 ft 319 kts 341°
2026-04-20 14:52 49.74937 10.90352 14603 ft 322 kts 340°
2026-04-20 14:52 49.77069 10.89213 15375 ft 326 kts 340°
2026-04-20 14:52 49.79181 10.88081 16111 ft 330 kts 340°
2026-04-20 14:53 49.81355 10.86913 16785 ft 335 kts 340°
2026-04-20 14:53 49.83596 10.85711 17344 ft 343 kts 341°
2026-04-20 14:53 49.85857 10.84500 17965 ft 349 kts 341°
2026-04-20 14:53 49.88161 10.83264 18594 ft 353 kts 341°
2026-04-20 14:54 49.90500 10.82007 19236 ft 358 kts 341°
2026-04-20 14:54 49.92837 10.80749 19840 ft 362 kts 341°
2026-04-20 14:54 49.95232 10.79462 20430 ft 367 kts 342°
2026-04-20 14:54 49.97646 10.78160 21062 ft 371 kts 342°
2026-04-20 14:55 50.00087 10.76844 21668 ft 375 kts 342°
2026-04-20 14:55 50.02550 10.75516 22243 ft 379 kts 342°
2026-04-20 14:55 50.05045 10.74119 22810 ft 385 kts 339°
2026-04-20 14:55 50.07439 10.72135 23386 ft 392 kts 329°
2026-04-20 14:56 50.09556 10.69532 23930 ft 398 kts 319°
2026-04-20 14:56 50.11526 10.66420 24480 ft 403 kts 316°
2026-04-20 14:56 50.13431 10.63276 25019 ft 406 kts 315°
2026-04-20 14:56 50.15387 10.60036 25630 ft 406 kts 315°
2026-04-20 14:57 50.17295 10.56887 26208 ft 406 kts 315°
2026-04-20 14:57 50.19241 10.53678 26756 ft 407 kts 315°
2026-04-20 14:57 50.21167 10.50503 27289 ft 407 kts 314°
2026-04-20 14:57 50.23124 10.47282 27791 ft 408 kts 315°
2026-04-20 14:58 50.25072 10.44149 28255 ft 408 kts 315°
2026-04-20 14:58 50.27052 10.40980 28700 ft 409 kts 314°
2026-04-20 14:58 50.29042 10.37785 29169 ft 409 kts 314°
2026-04-20 14:58 50.30999 10.34635 29701 ft 406 kts 313°
2026-04-20 14:59 50.32958 10.31463 30235 ft 402 kts 313°
2026-04-20 14:59 50.34855 10.28326 30781 ft 398 kts 311°
2026-04-20 14:59 50.36658 10.25079 31257 ft 394 kts 310°
2026-04-20 14:59 50.38474 10.21882 31608 ft 393 kts 312°
2026-04-20 15:00 50.40336 10.18801 31883 ft 394 kts 312°
2026-04-20 15:00 50.42244 10.15694 32168 ft 394 kts 313°
2026-04-20 15:00 50.44133 10.12616 32463 ft 393 kts 312°
2026-04-20 15:00 50.45974 10.09497 32676 ft 396 kts 311°
2026-04-20 15:01 50.47846 10.06287 32851 ft 399 kts 311°
2026-04-20 15:01 50.49704 10.03096 33074 ft 400 kts 311°
2026-04-20 15:01 50.51563 9.99909 33328 ft 399 kts 311°
2026-04-20 15:01 50.53453 9.96668 33529 ft 401 kts 311°
2026-04-20 15:02 50.55270 9.93365 33724 ft 402 kts 309°
2026-04-20 15:02 50.57043 9.90028 33953 ft 403 kts 309°
2026-04-20 15:02 50.58835 9.86629 34070 ft 405 kts 309°
2026-04-20 15:03 50.62431 9.79800 34085 ft 404 kts 309°
2026-04-20 15:03 50.65992 9.73025 34096 ft 405 kts 309°
2026-04-20 15:04 50.70191 9.67113 34095 ft 409 kts 324°
2026-04-20 15:04 50.75288 9.63261 34097 ft 414 kts 340°
2026-04-20 15:05 50.80970 9.61701 34098 ft 421 kts 355°
2026-04-20 15:05 50.86852 9.62380 34101 ft 427 kts
2026-04-20 15:06 50.92745 9.63565 34104 ft 427 kts
2026-04-20 15:06 50.98600 9.64737 34106 ft 427 kts
2026-04-20 15:07 51.04504 9.65903 34112 ft 427 kts
2026-04-20 15:07 51.10384 9.67062 34112 ft 427 kts
2026-04-20 15:08 51.16273 9.68222 34112 ft 427 kts
2026-04-20 15:08 51.22154 9.69354 34113 ft 427 kts
2026-04-20 15:09 51.28041 9.70297 34113 ft 427 kts
2026-04-20 15:09 51.33915 9.71231 34111 ft 426 kts
2026-04-20 15:10 51.39817 9.72185 34110 ft 426 kts
2026-04-20 15:10 51.45686 9.73143 34113 ft 426 kts
2026-04-20 15:11 51.51556 9.74188 34114 ft 427 kts
2026-04-20 15:11 51.57442 9.75320 34114 ft 426 kts
2026-04-20 15:12 51.63322 9.76438 34117 ft 427 kts
2026-04-20 15:12 51.69193 9.77551 34117 ft 427 kts
2026-04-20 15:13 51.75097 9.78674 34124 ft 427 kts
2026-04-20 15:13 51.80983 9.79796 34126 ft 428 kts
2026-04-20 15:14 51.86851 9.80920 34123 ft 428 kts
2026-04-20 15:14 51.92751 9.82056 34131 ft 428 kts
2026-04-20 15:15 51.98633 9.83198 34136 ft 428 kts
2026-04-20 15:15 52.04564 9.84351 34153 ft 428 kts
2026-04-20 15:16 52.10459 9.85501 34140 ft 427 kts
2026-04-20 15:16 52.16307 9.86643 34160 ft 427 kts
2026-04-20 15:17 52.22189 9.87800 33888 ft 431 kts
2026-04-20 15:17 52.25171 9.88583 33259 ft 439 kts 11°
2026-04-20 15:17 52.28138 9.89669 32661 ft 442 kts 15°
2026-04-20 15:17 52.31115 9.90939 32178 ft 440 kts 16°
2026-04-20 15:18 52.34052 9.92238 31691 ft 439 kts 17°
2026-04-20 15:18 52.36959 9.93531 31043 ft 439 kts 17°
2026-04-20 15:18 52.39903 9.94842 30221 ft 439 kts 17°
2026-04-20 15:18 52.42829 9.96144 29380 ft 439 kts 17°
2026-04-20 15:19 52.45769 9.97450 28519 ft 439 kts 17°
2026-04-20 15:19 52.48746 9.98774 27647 ft 439 kts 17°
2026-04-20 15:19 52.51678 10.00075 26996 ft 433 kts 17°
2026-04-20 15:19 52.54554 10.01351 26399 ft 427 kts 17°
2026-04-20 15:20 52.57382 10.02609 25741 ft 423 kts 17°
2026-04-20 15:20 52.60232 10.03880 25189 ft 417 kts 17°
2026-04-20 15:20 52.63024 10.05127 24682 ft 410 kts 17°
2026-04-20 15:20 52.65760 10.06352 24191 ft 403 kts 17°
2026-04-20 15:21 52.68433 10.07551 23710 ft 397 kts 17°
2026-04-20 15:21 52.71055 10.08731 23237 ft 391 kts 17°
2026-04-20 15:21 52.73653 10.09900 22761 ft 385 kts 17°
2026-04-20 15:21 52.76244 10.10920 22278 ft 382 kts 13°
2026-04-20 15:22 52.78859 10.11572 21796 ft 379 kts
2026-04-20 15:22 52.81484 10.11861 21322 ft 376 kts
2026-04-20 15:22 52.84097 10.11969 20849 ft 372 kts
2026-04-20 15:22 52.86681 10.12045 20386 ft 369 kts
2026-04-20 15:23 52.89232 10.12117 19921 ft 366 kts
2026-04-20 15:23 52.91765 10.12193 19461 ft 363 kts
2026-04-20 15:23 52.94301 10.12271 18984 ft 360 kts
2026-04-20 15:23 52.96803 10.12352 18531 ft 358 kts
2026-04-20 15:24 52.99274 10.12431 18081 ft 355 kts
2026-04-20 15:24 53.01730 10.12510 17648 ft 353 kts
2026-04-20 15:24 53.04180 10.12591 17213 ft 351 kts
2026-04-20 15:24 53.06620 10.12671 16770 ft 348 kts
2026-04-20 15:25 53.09026 10.12750 16326 ft 346 kts
2026-04-20 15:25 53.11453 10.12829 15893 ft 344 kts
2026-04-20 15:25 53.13839 10.12907 15461 ft 341 kts
2026-04-20 15:25 53.16184 10.12983 15023 ft 339 kts
2026-04-20 15:26 53.18538 10.13061 14593 ft 336 kts
2026-04-20 15:26 53.20883 10.13139 14153 ft 334 kts
2026-04-20 15:26 53.23180 10.13217 13727 ft 332 kts
2026-04-20 15:26 53.25505 10.13296 13281 ft 329 kts
2026-04-20 15:27 53.27788 10.13373 12858 ft 327 kts
2026-04-20 15:27 53.30033 10.13449 12446 ft 325 kts
2026-04-20 15:27 53.32293 10.13524 12025 ft 323 kts
2026-04-20 15:27 53.34555 10.13598 11584 ft 321 kts
2026-04-20 15:28 53.36771 10.13670 11164 ft 319 kts
2026-04-20 15:28 53.38995 10.13245 11097 ft 329 kts 346°
2026-04-20 15:28 53.41003 10.11398 11124 ft 339 kts 323°
2026-04-20 15:28 53.42621 10.08551 11168 ft 331 kts 315°
2026-04-20 15:29 53.44102 10.05725 11156 ft 314 kts 315°
2026-04-20 15:29 53.45512 10.03043 11152 ft 297 kts 315°
2026-04-20 15:29 53.46849 10.00530 11163 ft 281 kts 316°
2026-04-20 15:29 53.48114 9.98162 11162 ft 266 kts 314°
2026-04-20 15:30 53.49021 9.95453 11148 ft 271 kts 283°
2026-04-20 15:30 53.48925 9.92319 11165 ft 274 kts 250°
2026-04-20 15:30 53.47909 9.89603 11182 ft 275 kts 228°
2026-04-20 15:30 53.46643 9.87222 11173 ft 277 kts 226°
2026-04-20 15:31 53.45338 9.84776 10879 ft 278 kts 227°
2026-04-20 15:31 53.44077 9.82341 10585 ft 277 kts 228°
2026-04-20 15:31 53.42845 9.79911 10305 ft 274 kts 228°
2026-04-20 15:31 53.41622 9.77472 10032 ft 272 kts 229°
2026-04-20 15:32 53.40411 9.75049 9765 ft 270 kts 229°
2026-04-20 15:32 53.39223 9.72672 9501 ft 268 kts 229°
2026-04-20 15:32 53.38028 9.70285 9251 ft 266 kts 229°
2026-04-20 15:32 53.36842 9.67917 8974 ft 264 kts 229°
2026-04-20 15:33 53.35663 9.65566 8720 ft 263 kts 229°
2026-04-20 15:33 53.34496 9.63242 8474 ft 261 kts 229°
2026-04-20 15:33 53.33342 9.60943 8220 ft 260 kts 229°
2026-04-20 15:33 53.32178 9.58629 7963 ft 259 kts 229°
2026-04-20 15:34 53.31015 9.56319 7701 ft 257 kts 229°
2026-04-20 15:34 53.29974 9.53911 7399 ft 258 kts 249°
2026-04-20 15:34 53.29789 9.51014 7076 ft 253 kts 288°
2026-04-20 15:34 53.30628 9.48546 6801 ft 242 kts 323°
2026-04-20 15:35 53.31936 9.46833 6654 ft 240 kts 330°
2026-04-20 15:35 53.33326 9.45246 6415 ft 237 kts 341°
2026-04-20 15:35 53.34856 9.44687 6119 ft 224 kts 10°
2026-04-20 15:35 53.36297 9.45444 5861 ft 212 kts 38°
2026-04-20 15:36 53.37331 9.47099 5630 ft 206 kts 52°
2026-04-20 15:36 53.38233 9.48930 5434 ft 202 kts 53°
2026-04-20 15:36 53.39116 9.50753 5209 ft 200 kts 53°
2026-04-20 15:36 53.40002 9.52556 4971 ft 199 kts 52°
2026-04-20 15:37 53.40881 9.54332 4746 ft 198 kts 52°
2026-04-20 15:37 53.41782 9.56089 4539 ft 197 kts 50°
2026-04-20 15:37 53.42714 9.57775 4323 ft 196 kts 50°
2026-04-20 15:37 53.43617 9.59439 4115 ft 195 kts 51°
2026-04-20 15:38 53.44516 9.61153 3896 ft 193 kts 51°
2026-04-20 15:38 53.45375 9.62839 3680 ft 190 kts 52°
2026-04-20 15:38 53.46218 9.64532 3475 ft 188 kts 53°
2026-04-20 15:38 53.47046 9.66215 3252 ft 187 kts 53°
2026-04-20 15:39 53.47870 9.67904 3057 ft 190 kts 53°
2026-04-20 15:39 53.48732 9.69680 3002 ft 199 kts 53°
2026-04-20 15:39 53.49612 9.71492 2996 ft 198 kts 53°
2026-04-20 15:39 53.50450 9.73209 2980 ft 183 kts 53°
2026-04-20 15:40 53.51226 9.74798 2973 ft 171 kts 53°
2026-04-20 15:40 53.51961 9.76303 3066 ft 159 kts 53°
2026-04-20 15:40 53.52658 9.77730 2868 ft 152 kts 53°
2026-04-20 15:40 53.53315 9.79073 2676 ft 145 kts 53°
2026-04-20 15:41 53.53936 9.80341 2492 ft 137 kts 53°
2026-04-20 15:41 53.54515 9.81519 2331 ft 126 kts 53°
2026-04-20 15:41 53.55065 9.82642 2186 ft 125 kts 53°
2026-04-20 15:41 53.55627 9.83786 2022 ft 124 kts 52°
2026-04-20 15:42 53.56173 9.84884 1873 ft 123 kts 52°
2026-04-20 15:42 53.56723 9.86008 1703 ft 123 kts 53°
2026-04-20 15:42 53.57262 9.87123 1520 ft 122 kts 52°
2026-04-20 15:42 53.57806 9.88213 1339 ft 122 kts 52°
2026-04-20 15:43 53.58356 9.89327 1150 ft 121 kts 52°
2026-04-20 15:43 53.58892 9.90415 973 ft 121 kts 52°
2026-04-20 15:43 53.59428 9.91508 808 ft 121 kts 49°
2026-04-20 15:43 53.59963 9.92594 691 ft 120 kts 51°
2026-04-20 15:44 53.60508 9.93679 543 ft 120 kts 52°
2026-04-20 15:44 53.61035 9.94779 348 ft 120 kts 47°
2026-04-20 15:44 53.61570 9.95860 167 ft 117 kts 48°
2026-04-20 15:44 53.62096 9.96907 40 ft 116 kts 53°
2026-04-20 15:45 53.62539 9.97806 28 ft 75 kts 50°
2026-04-20 15:45 53.62771 9.98281 36 ft 38 kts 52°
2026-04-20 15:45 53.62926 9.98594 38 ft 25 kts 51°
2026-04-20 15:45 53.63050 9.98854 36 ft 27 kts 51°
2026-04-20 15:46 53.63094 9.99079 35 ft 16 kts 88°
2026-04-20 15:46 53.63086 9.99255 33 ft 12 kts 94°
2026-04-20 15:46 53.63086 9.99347 31 ft 0 kts 81°
2026-04-20 15:47 53.63086 9.99348 31 ft 0 kts 80°
2026-04-20 15:47 53.63094 9.99390 31 ft 8 kts 65°
2026-04-20 15:48 53.63141 9.99502 31 ft 13 kts 53°
2026-04-20 15:48 53.63205 9.99638 31 ft 13 kts 52°
2026-04-20 15:48 53.63190 9.99789 29 ft 17 kts 148°
2026-04-20 15:48 53.63090 9.99873 30 ft 14 kts 150°
2026-04-20 15:49 53.63001 9.99953 33 ft 13 kts 153°
2026-04-20 15:49 53.62956 9.99998 35 ft 3 kts 127°
2026-04-20 15:49 53.62948 10.00040 35 ft 6 kts 100°
2026-04-20 15:49 53.62973 10.00158 38 ft 13 kts 40°
2026-04-20 15:50 53.63070 10.00252 38 ft 18 kts 14°
2026-04-20 15:50 53.63200 10.00246 38 ft 14 kts 358°
2026-04-20 15:50 53.63269 10.00252 40 ft 8 kts 23°
2026-04-20 15:50 53.63292 10.00333 41 ft 7 kts 88°
2026-04-20 15:51 53.63293 10.00368 43 ft 0 kts 87°